Location: Asheville, NC
(35.6000°N, 82.5500°W)
Time: 02:31:33
(UTC-04:00)

Vanguard 2 Rocket - Pass Details

Date: 17 March 2018
Orbit: 553 x 3328 km, 32.9° (Epoch: 19 June)

Event Time Altitude Azimuth Distance (km) Brightness Sun altitude
Rises 00:33:50 0° 260° (W) 3,939 - -52.6°
Reaches altitude 10° 00:37:50 10° 236° (WSW) 3,437 - -53.0°
Maximum altitude 00:42:18 15° 206° (SSW) 3,576 - -53.4°
Drops below altitude 10° 00:47:59 10° 177° (S) 4,551 - -53.8°
Sets 00:55:05 0° 158° (SSE) 6,216 - -54.3°
